{"data":{"norad_id":65493,"intl_designator":"2025-198B","name":"STARLINK-35242","alt_names":[],"object_type":"PAYLOAD","status":"ACTIVE","operator":null,"country":"US","launch_date":"2025-09-05","launch_site_code":"AFETR","launch_vehicle":null,"mission":null,"orbit_class":"UNKNOWN","rcs_meters":null,"size_class":null,"mass_kg":null,"dimensions":null,"purposes":["comms"],"wikipedia_slug":null,"has_3d_model":false,"image_url":null,"decayed_at":null,"tle_current":{"epoch":"2026-09-19T22:03:58.173120Z","epoch_age_seconds":162234,"freshness":"FRESH","line1":"1 65493U 25198B   26262.91942330  .00011626  00000+0  35471-3 0  9999","line2":"2 65493  53.1579  84.1419 0001384  48.2899 311.8222 15.34399036 58423","mean_motion":15.34399036,"eccentricity":0.0001384,"inclination_deg":53.1579,"raan_deg":84.1419,"arg_perigee_deg":48.2899,"mean_anomaly_deg":311.8222,"bstar":0.00035471,"rev_number":5842,"period_min":93.847817042033,"perigee_km":461.75933273397,"apogee_km":463.65287810555,"semimajor_km":6840.8431054198,"source":"CELESTRAK","updated_at":"2026-09-21T09:00:35.641105Z"}}}